| time (UTC) | temp F | wind direction | speed knots | gust knots | rain 1hr in | rain 24hr in | rain mn in | humidity % | barometer mb |
| 20260506143004 | 70 | 7 | 2.6 | 10.4 | 0.00 | 0.00 | 0.00 | 66 | 1005.8 |
| 20260506142004 | 70 | 2 | 5.2 | 10.4 | 0.00 | 0.00 | 0.00 | 66 | 1006.0 |
| 20260506141502 | 70 | 356 | 2.6 | 7.0 | 0.00 | 0.00 | 0.00 | 66 | 1005.9 |
| 20260506140003 | 70 | 12 | 2.6 | 7.8 | 0.00 | 0.00 | 0.00 | 66 | 1005.9 |
| 20260506135005 | 70 | 14 | 2.6 | 8.7 | 0.00 | 0.00 | 0.00 | 67 | 1006.0 |
| 20260506133503 | 70 | 4 | 5.2 | 10.4 | 0.00 | 0.00 | 0.00 | 67 | 1006.2 |
| 20260506133004 | 70 | 11 | 5.2 | 10.4 | 0.00 | 0.00 | 0.00 | 66 | 1006.0 |
| 20260506132503 | 69 | 26 | 4.3 | 8.7 | 0.00 | 0.00 | 0.00 | 67 | 1006.0 |
| 20260506131505 | 69 | 21 | 1.7 | 6.1 | 0.00 | 0.00 | 0.00 | 68 | 1006.2 |
| 20260506131003 | 69 | 13 | 2.6 | 7.8 | 0.00 | 0.00 | 0.00 | 69 | 1006.1 |
| 20260506125502 | 68 | 6 | 3.5 | 7.0 | 0.00 | 0.00 | 0.00 | 69 | 1005.8 |
| 20260506125003 | 68 | 42 | 2.6 | 10.4 | 0.00 | 0.00 | 0.00 | 69 | 1005.8 |
| 20260506124002 | 67 | 44 | 2.6 | 8.7 | 0.00 | 0.00 | 0.00 | 70 | 1005.8 |
| 20260506123004 | 67 | 21 | 2.6 | 7.8 | 0.00 | 0.00 | 0.00 | 71 | 1005.9 |
| 20260506122502 | 67 | 16 | 2.6 | 7.8 | 0.00 | 0.00 | 0.00 | 71 | 1006.0 |
| 20260506122003 | 67 | 27 | 2.6 | 7.0 | 0.00 | 0.00 | 0.00 | 71 | 1006.1 |
| 20260506121003 | 67 | 13 | 2.6 | 5.2 | 0.00 | 0.00 | 0.00 | 71 | 1006.2 |
| 20260506120502 | 67 | 10 | 4.3 | 10.4 | 0.00 | 0.00 | 0.00 | 71 | 1006.4 |
| 20260506120002 | 67 | 6 | 4.3 | 15.6 | 0.00 | 0.00 | 0.00 | 71 | 1006.4 |
| 20260506115503 | 67 | 23 | 1.7 | 6.1 | 0.00 | 0.00 | 0.00 | 71 | 1006.5 |
| 20260506114003 | 67 | 3 | 4.3 | 10.4 | 0.00 | 0.00 | 0.00 | 72 | 1006.5 |
| 20260506112503 | 66 | 32 | 2.6 | 7.0 | 0.00 | 0.00 | 0.00 | 74 | 1006.4 |
| 20260506112003 | 66 | 2 | 4.3 | 7.8 | 0.00 | 0.00 | 0.00 | 74 | 1006.5 |
| 20260506111003 | 66 | 11 | 2.6 | 5.2 | 0.00 | 0.00 | 0.00 | 75 | 1006.3 |
| 20260506110003 | 65 | 24 | 2.6 | 4.3 | 0.00 | 0.00 | 0.00 | 75 | 1006.2 |
| 20260506105503 | 65 | 19 | 2.6 | 7.0 | 0.00 | 0.00 | 0.00 | 75 | 1006.2 |
| 20260506105003 | 65 | 28 | 2.6 | 7.0 | 0.00 | 0.00 | 0.00 | 75 | 1006.2 |
| 20260506104502 | 65 | 12 | 2.6 | 6.1 | 0.00 | 0.00 | 0.00 | 75 | 1006.2 |
| 20260506103502 | 65 | 1 | 2.6 | 8.7 | 0.00 | 0.00 | 0.00 | 75 | 1006.2 |
| 20260506102502 | 65 | 31 | 1.7 | 7.0 | 0.00 | 0.00 | 0.00 | 76 | 1006.2 |
| 20260506101002 | 65 | 10 | 3.5 | 8.7 | 0.00 | 0.00 | 0.00 | 75 | 1006.0 |
| 20260506100503 | 65 | 16 | 2.6 | 7.8 | 0.00 | 0.00 | 0.00 | 75 | 1006.0 |
| 20260506092502 | 65 | 17 | 4.3 | 7.8 | 0.00 | 0.00 | 0.00 | 76 | 1006.0 |
| 20260506092003 | 65 | 10 | 2.6 | 7.0 | 0.00 | 0.00 | 0.00 | 76 | 1006.0 |
| 20260506091504 | 65 | 4 | 2.6 | 7.0 | 0.00 | 0.00 | 0.00 | 76 | 1006.0 |
| 20260506091002 | 65 | 17 | 2.6 | 5.2 | 0.00 | 0.00 | 0.00 | 76 | 1006.1 |
| 20260506090503 | 65 | 15 | 2.6 | 5.2 | 0.00 | 0.00 | 0.00 | 76 | 1006.1 |
| 20260506090003 | 65 | 4 | 2.6 | 7.8 | 0.00 | 0.00 | 0.00 | 76 | 1006.2 |
| 20260506085503 | 65 | 24 | 2.6 | 5.2 | 0.00 | 0.00 | 0.00 | 76 | 1006.1 |
| 20260506085002 | 65 | 16 | 3.5 | 5.2 | 0.00 | 0.00 | 0.00 | 76 | 1006.2 |
| 20260506084003 | 65 | 11 | 1.7 | 2.6 | 0.00 | 0.00 | 0.00 | 76 | 1006.2 |
| 20260506083502 | 65 | 15 | 1.7 | 4.3 | 0.00 | 0.00 | 0.00 | 76 | 1006.2 |
| 20260506083002 | 65 | 17 | 1.7 | 6.1 | 0.00 | 0.00 | 0.00 | 76 | 1006.1 |
| 20260506082503 | 65 | 11 | 2.6 | 7.0 | 0.00 | 0.00 | 0.00 | 76 | 1006.2 |
| 20260506081004 | 66 | 8 | 2.6 | 5.2 | 0.00 | 0.00 | 0.00 | 75 | 1006.3 |
| 20260506080503 | 66 | 11 | 2.6 | 7.0 | 0.00 | 0.00 | 0.00 | 74 | 1006.3 |
| 20260506072003 | 67 | 21 | 0.9 | 4.3 | 0.00 | 0.00 | 0.00 | 71 | 1006.4 |
| 20260506071503 | 67 | 1 | 2.6 | 6.1 | 0.00 | 0.00 | 0.00 | 71 | 1006.5 |
| 20260506062502 | 68 | 12 | 4.3 | 10.4 | 0.00 | 0.00 | 0.00 | 69 | 1006.5 |
| 20260506062003 | 68 | 12 | 2.6 | 6.1 | 0.00 | 0.00 | 0.00 | 68 | 1006.5 |
| 20260506051003 | 69 | 16 | 3.5 | 7.0 | 0.00 | 0.00 | 0.00 | 65 | 1007.1 |
| 20260506050503 | 69 | 10 | 2.6 | 4.3 | 0.00 | 0.00 | 0.00 | 64 | 1007.1 |
| 20260506043503 | 70 | 30 | 3.5 | 10.4 | 0.00 | 0.00 | 0.00 | 63 | 1007.1 |
| 20260506043003 | 70 | 13 | 3.5 | 7.0 | 0.00 | 0.00 | 0.00 | 62 | 1007.1 |
| 20260506042504 | 70 | 6 | 3.5 | 8.7 | 0.00 | 0.00 | 0.00 | 62 | 1007.1 |
| 20260506035503 | 71 | 1 | 4.3 | 12.2 | 0.00 | 0.00 | 0.00 | 60 | 1007.0 |
| 20260506034503 | 71 | 35 | 2.6 | 7.8 | 0.00 | 0.00 | 0.00 | 59 | 1007.1 |
| 20260506033504 | 71 | 4 | 4.3 | 7.8 | 0.00 | 0.00 | 0.00 | 58 | 1007.1 |
| 20260506032003 | 72 | 12 | 4.3 | 8.7 | 0.00 | 0.00 | 0.00 | 57 | 1006.9 |
| 20260506031003 | 72 | 12 | 2.6 | 7.8 | 0.00 | 0.00 | 0.00 | 56 | 1006.8 |
| 20260506030003 | 72 | 1 | 4.3 | 10.4 | 0.00 | 0.00 | 0.00 | 56 | 1006.7 |
| 20260506025003 | 72 | 14 | 4.3 | 8.7 | 0.00 | 0.00 | 0.00 | 56 | 1006.8 |
| 20260506024503 | 72 | 7 | 2.6 | 7.0 | 0.00 | 0.00 | 0.00 | 55 | 1006.8 |
| 20260506024003 | 72 | 17 | 4.3 | 13.9 | 0.00 | 0.00 | 0.00 | 55 | 1006.9 |
| 20260506023504 | 73 | 13 | 4.3 | 7.8 | 0.00 | 0.00 | 0.00 | 55 | 1006.9 |
| 20260506023003 | 73 | 9 | 3.5 | 8.7 | 0.00 | 0.00 | 0.00 | 55 | 1007.0 |
| 20260506022504 | 73 | 18 | 3.5 | 10.4 | 0.00 | 0.00 | 0.00 | 55 | 1007.0 |
| 20260506021502 | 73 | 10 | 3.5 | 8.7 | 0.00 | 0.00 | 0.00 | 55 | 1006.8 |
| 20260506021003 | 73 | 20 | 3.5 | 7.8 | 0.00 | 0.00 | 0.00 | 54 | 1006.8 |
| 20260506020004 | 73 | 9 | 2.6 | 7.0 | 0.00 | 0.00 | 0.00 | 54 | 1006.8 |
| 20260506015504 | 73 | 5 | 2.6 | 10.4 | 0.00 | 0.00 | 0.00 | 54 | 1006.8 |
| 20260506014502 | 73 | 23 | 2.6 | 7.8 | 0.00 | 0.00 | 0.00 | 54 | 1006.8 |
| 20260506014003 | 73 | 17 | 1.7 | 4.3 | 0.00 | 0.00 | 0.00 | 54 | 1006.7 |
| 20260506013503 | 73 | 8 | 2.6 | 6.1 | 0.00 | 0.00 | 0.00 | 53 | 1006.6 |
| 20260506013004 | 74 | 24 | 4.3 | 7.0 | 0.00 | 0.00 | 0.00 | 53 | 1006.6 |
| 20260506012003 | 75 | 11 | 2.6 | 10.4 | 0.00 | 0.00 | 0.00 | 49 | 1006.5 |
| 20260506011003 | 77 | 13 | 3.5 | 6.1 | 0.00 | 0.00 | 0.00 | 43 | 1006.1 |
| 20260506010503 | 77 | 19 | 2.6 | 7.0 | 0.00 | 0.00 | 0.00 | 43 | 1006.1 |
| 20260506004505 | 78 | 0 | 4.3 | 7.0 | 0.00 | 0.00 | 0.00 | 41 | 1005.8 |
| 20260506003003 | 79 | 21 | 4.3 | 11.3 | 0.00 | 0.00 | 0.00 | 40 | 1005.7 |
| 20260506002004 | 79 | 15 | 4.3 | 8.7 | 0.00 | 0.00 | 0.00 | 39 | 1005.7 |
| 20260506001508 | 79 | 23 | 1.7 | 7.0 | 0.00 | 0.00 | 0.00 | 39 | 1005.6 |
| 20260506001011 | 80 | 29 | 4.3 | 10.4 | 0.00 | 0.00 | 0.00 | 38 | 1005.6 |
| 20260505235505 | 80 | 13 | 3.5 | 7.8 | 0.00 | 0.00 | 0.00 | 35 | 1005.4 |
| 20260505235003 | 80 | 7 | 2.6 | 11.3 | 0.00 | 0.00 | 0.00 | 34 | 1005.4 |
| 20260505234503 | 81 | 1 | 4.3 | 10.4 | 0.00 | 0.00 | 0.00 | 34 | 1005.3 |
| 20260505232003 | 81 | 13 | 4.3 | 8.7 | 0.00 | 0.00 | 0.00 | 32 | 1005.0 |
| 20260505231004 | 81 | 10 | 3.5 | 10.4 | 0.00 | 0.00 | 0.00 | 31 | 1004.9 |
| 20260505230503 | 81 | 8 | 4.3 | 10.4 | 0.00 | 0.00 | 0.00 | 31 | 1004.8 |
| 20260505225004 | 82 | 9 | 6.1 | 15.6 | 0.00 | 0.00 | 0.00 | 29 | 1004.7 |
| 20260505224504 | 82 | 354 | 7.0 | 13.9 | 0.00 | 0.00 | 0.00 | 29 | 1004.8 |
| 20260505223503 | 83 | 14 | 5.2 | 10.4 | 0.00 | 0.00 | 0.00 | 28 | 1004.6 |
| 20260505223003 | 83 | 6 | 4.3 | 8.7 | 0.00 | 0.00 | 0.00 | 28 | 1004.5 |
| 20260505222003 | 83 | 22 | 2.6 | 6.1 | 0.00 | 0.00 | 0.00 | 29 | 1004.5 |
| 20260505221503 | 83 | 7 | 5.2 | 10.4 | 0.00 | 0.00 | 0.00 | 28 | 1004.5 |
| 20260505220504 | 83 | 358 | 6.1 | 10.4 | 0.00 | 0.00 | 0.00 | 29 | 1004.5 |
| 20260505220003 | 83 | 15 | 3.5 | 13.9 | 0.00 | 0.00 | 0.00 | 29 | 1004.4 |
| 20260505214504 | 84 | 23 | 4.3 | 13.0 | 0.00 | 0.00 | 0.00 | 30 | 1004.1 |
| 20260505213503 | 84 | 4 | 5.2 | 12.2 | 0.00 | 0.00 | 0.00 | 30 | 1004.1 |
| 20260505213003 | 84 | 2 | 5.2 | 10.4 | 0.00 | 0.00 | 0.00 | 30 | 1004.1 |
| 20260505212505 | 84 | 8 | 7.0 | 13.9 | 0.00 | 0.00 | 0.00 | 29 | 1004.0 |
| 20260505212004 | 84 | 14 | 7.8 | 15.6 | 0.00 | 0.00 | 0.00 | 29 | 1004.2 |
| 20260505211005 | 84 | 15 | 7.8 | 15.6 | 0.00 | 0.00 | 0.00 | 29 | 1004.1 |
| 20260505210503 | 84 | 4 | 6.1 | 12.2 | 0.00 | 0.00 | 0.00 | 30 | 1004.1 |
| 20260505205504 | 84 | 3 | 4.3 | 17.4 | 0.00 | 0.00 | 0.00 | 29 | 1004.0 |
| 20260505204004 | 84 | 10 | 3.5 | 13.9 | 0.00 | 0.00 | 0.00 | 31 | 1003.8 |
| 20260505203504 | 84 | 1 | 6.1 | 12.2 | 0.00 | 0.00 | 0.00 | 31 | 1004.0 |
| 20260505203003 | 84 | 12 | 5.2 | 15.6 | 0.00 | 0.00 | 0.00 | 31 | 1003.9 |
| 20260505202504 | 84 | 14 | 7.8 | 15.6 | 0.00 | 0.00 | 0.00 | 30 | 1003.9 |
| 20260505202004 | 85 | 357 | 6.1 | 12.2 | 0.00 | 0.00 | 0.00 | 31 | 1004.0 |
| 20260505201004 | 85 | 0 | 6.1 | 13.0 | 0.00 | 0.00 | 0.00 | 28 | 1004.0 |
| 20260505200505 | 85 | 33 | 3.5 | 8.7 | 0.00 | 0.00 | 0.00 | 31 | 1004.0 |
| 20260505200004 | 85 | 1 | 5.2 | 11.3 | 0.00 | 0.00 | 0.00 | 30 | 1004.1 |
| 20260505194003 | 85 | 18 | 4.3 | 7.0 | 0.00 | 0.00 | 0.00 | 31 | 1004.5 |
| 20260505192004 | 84 | 31 | 7.0 | 13.0 | 0.00 | 0.00 | 0.00 | 30 | 1005.0 |
| 20260505191003 | 84 | 14 | 5.2 | 14.8 | 0.00 | 0.00 | 0.00 | 31 | 1005.0 |
| 20260505190505 | 84 | 0 | 4.3 | 11.3 | 0.00 | 0.00 | 0.00 | 33 | 1005.1 |
| 20260505190004 | 84 | 3 | 6.1 | 13.0 | 0.00 | 0.00 | 0.00 | 32 | 1005.1 |
| 20260505185503 | 84 | 6 | 6.1 | 12.2 | 0.00 | 0.00 | 0.00 | 32 | 1005.3 |
| 20260505185005 | 84 | 0 | 5.2 | 13.0 | 0.00 | 0.00 | 0.00 | 33 | 1005.3 |
| 20260505184003 | 84 | 34 | 3.5 | 7.8 | 0.00 | 0.00 | 0.00 | 35 | 1005.5 |
| 20260505180508 | 83 | 9 | 5.2 | 11.3 | 0.00 | 0.00 | 0.00 | 36 | 1005.7 |
| 20260505174503 | 83 | 4 | 4.3 | 8.7 | 0.00 | 0.00 | 0.00 | 39 | 1006.0 |
| 20260505173005 | 82 | 8 | 2.6 | 8.7 | 0.00 | 0.00 | 0.00 | 39 | 1005.9 |
| 20260505172503 | 82 | 18 | 1.7 | 7.0 | 0.00 | 0.00 | 0.00 | 42 | 1006.1 |
| 20260505172003 | 82 | 0 | 5.2 | 10.4 | 0.00 | 0.00 | 0.00 | 40 | 1006.2 |
| 20260505171503 | 82 | 15 | 4.3 | 10.4 | 0.00 | 0.00 | 0.00 | 40 | 1006.3 |
| 20260505164504 | 81 | 25 | 4.3 | 7.8 | 0.00 | 0.00 | 0.00 | 42 | 1006.6 |
| 20260505161503 | 80 | 13 | 4.3 | 6.1 | 0.00 | 0.00 | 0.00 | 43 | 1007.0 |
| 20260505161003 | 80 | 15 | 1.7 | 6.1 | 0.00 | 0.00 | 0.00 | 45 | 1007.1 |
| 20260505160503 | 79 | 29 | 1.7 | 8.7 | 0.00 | 0.00 | 0.00 | 45 | 1007.1 |
| 20260505153003 | 76 | 331 | 2.6 | 5.2 | 0.00 | 0.00 | 0.00 | 48 | 1007.5 |
| 20260505152504 | 76 | 14 | 1.7 | 5.2 | 0.00 | 0.00 | 0.00 | 49 | 1007.6 |
| 20260505151004 | 75 | 11 | 2.6 | 6.1 | 0.00 | 0.00 | 0.00 | 50 | 1007.8 |